Location: Oshawa
(43.9000°N, 78.8670°W)
Time: 12:05:13
(UTC-05:00)

Altair - Visible Passes

Search period start: 17 January 2017 00:00
Search period end: 27 January 2017 00:00
Orbit: 1501 x 1683 km, 47.2° (Epoch: 15 January)

Date Brightness Start Highest point End Pass type
(mag) Time Alt. Az. Time Alt. Az. Time Alt. Az.
17 Jan 9.0 03:11:27 24° SE 03:11:27 24° SE 03:14:28 10° SE visible
17 Jan 8.3 05:09:31 29° SW 05:09:31 29° SW 05:16:22 10° S visible
17 Jan 9.2 18:20:26 10° SE 18:22:08 10° ESE 18:23:50 10° ESE visible
17 Jan 8.2 20:15:36 10° SSW 20:22:31 38° SSE 20:22:31 38° SSE visible
17 Jan 9.5 22:19:01 10° WSW 22:20:35 16° WSW 22:20:35 16° WSW visible
18 Jan 9.4 02:48:09 15° ESE 02:48:09 15° ESE 02:49:22 10° ESE visible
18 Jan 8.4 04:46:13 28° SSW 04:46:13 28° SSW 04:51:36 10° SSE visible
18 Jan 8.1 19:50:40 10° SSW 19:59:15 40° SE 19:59:15 40° SE visible
18 Jan 9.0 21:53:48 10° WSW 21:57:19 25° WSW 21:57:19 25° WSW visible
19 Jan 8.7 04:22:57 24° S 04:22:57 24° S 04:26:49 10° SSE visible
19 Jan 8.1 19:25:47 10° SSW 19:34:44 37° SE 19:35:58 36° ESE visible
19 Jan 8.5 21:28:38 10° WSW 21:34:01 37° WSW 21:34:01 37° WSW visible
20 Jan 9.0 03:59:42 18° S 03:59:42 18° S 04:01:59 10° SSE visible
20 Jan 8.2 19:00:55 10° SSW 19:09:38 34° SE 19:12:38 29° ESE visible
20 Jan 8.0 21:03:27 10° WSW 21:10:41 53° SW 21:10:41 53° SW visible
20 Jan 9.8 23:08:43 10° W 23:08:44 10° W 23:08:44 10° W visible
21 Jan 9.4 03:36:29 12° SSE 03:36:29 12° SSE 03:37:07 10° SSE visible
21 Jan 8.4 18:36:05 10° S 18:44:33 32° SE 18:49:15 22° E visible
21 Jan 7.6 20:38:17 10° SW 20:47:18 70° SSW 20:47:18 70° SSW visible
21 Jan 9.4 22:43:28 10° W 22:45:21 17° W 22:45:21 17° W visible
22 Jan 8.5 18:11:18 10° S 18:19:29 29° SE 18:25:49 16° E visible
22 Jan 7.4 20:13:08 10° SW 20:23:15 74° SSE 20:23:52 72° SE visible
22 Jan 9.0 22:18:12 10° W 22:21:55 26° W 22:21:55 26° W visible
23 Jan 8.6 17:46:35 10° S 17:54:26 27° SE 18:02:18 10° ENE visible
23 Jan 7.6 19:48:00 10° SW 19:58:05 70° SSE 20:00:23 56° E visible
23 Jan 8.6 21:52:55 10° W 21:58:26 38° W 21:58:26 38° W visible
24 Jan 7.6 19:22:53 10° SW 19:32:55 67° SSE 19:36:52 41° E visible
24 Jan 8.1 21:27:40 10° W 21:34:54 52° W 21:34:54 52° W visible
25 Jan 7.7 18:57:48 10° SW 19:07:44 63° SE 19:13:18 30° ENE visible
25 Jan 7.7 21:02:25 10° W 21:11:21 69° WNW 21:11:21 69° WNW visible
25 Jan 9.6 23:08:01 10° WNW 23:09:23 15° WNW 23:09:23 15° WNW visible
26 Jan 7.8 18:32:44 10° SW 18:42:35 59° SE 18:49:42 21° ENE visible
26 Jan 7.5 20:37:10 10° W 20:47:25 80° NNW 20:47:44 79° N visible
26 Jan 9.2 22:42:45 10° WNW 22:45:46 23° WNW 22:45:46 23° WNW visible
